Location: St. Louis
(38.6270°N, 90.1994°W)
Time: 12:12:14
(UTC-06:00)

Altair - Pass Details

Date: 02 December 2021
Orbit: 1501 x 1683 km, 47.2° (Epoch: 25 January)

Event Time Altitude Azimuth Distance (km) Brightness Sun altitude
Rises 13:55:36 0° 200° (SSW) 4,823 11.5 22.6°
Reaches altitude 10° 13:59:08 10° 191° (SSW) 3,812 11.1 22.2°
Maximum altitude 14:07:27 34° 131° (SE) 2,371 8.8 21.3°
Drops below altitude 10° 14:15:30 10° 72° (ENE) 3,705 9.1 20.4°
Sets 14:18:51 0° 63° (ENE) 4,670 9.5 20.0°
